User: anonymous   Login
Location: Unspecified
(0.0000°N, 0.0000°E)
Time: 13:11:44
(UTC+00:00)
Language:

Snapshot - Orbit

View from above orbital plane
View from above orbital plane
View from above satellite
View from above satellite

Ground track
Ground track

The orbit data is extracted from the following two-line orbital elements,

1 01314U 65027A   15089.54875979  .00000059  00000-0  19238-3 0  9996
2 01314 090.2929 262.3900 0030697 167.7566 255.0067 12.91740269102534
Epoch (UTC): 30 March 2015 13:10:12
Eccentricity: 0.0030697
inclination: 90.2929°
perigee height: 1271 km
apogee height: 1318 km
right ascension of ascending node: 262.3900°
argument of perigee: 167.7566°
revolutions per day: 12.91740269
mean anomaly at epoch: 255.0067°
orbit number at epoch: 10253

The dashed part of the orbit path shows where the satellite is in the earth's shadow,  

DLR